Regional Weather Roundup
Issued by NWS

Home | Current Version | Previous Version | Text Only | Print | Product List | Glossary Off
Versions: 1 2 3 4 5 6 7 8 9 10 11 12 13 14 15 16 17 18 19 20 21 22 23 24 25 26 27 28 29 30 31 32 33 34 35 36 37 38 39 40 41 42 43 44 45 46 47 48 49 50

000
ASUS43 KIND 251509
RWRIN

WEATHER ROUNDUP FOR INDIANA
NATIONAL WEATHER SERVICE INDIANAPOLIS IN
1100 AM EDT FRI JUL 25 2014

NOTE: "FAIR" INDICATES FEW OR NO CLOUDS BELOW 12,000 FEET WITH NO
SIGNIFICANT WEATHER AND/OR OBSTRUCTIONS TO VISIBILITY.

* - STATION DOES NOT REPORT WEATHER SUCH AS PRECIPITATION OR FOG.

+ - STATION NOT QUALITY CONTROLLED BY THE NATIONAL WEATHER SERVICE.
    USE DATA WITH CAUTION...ESPECIALLY DEWPOINT AND RELATIVE
    HUMIDITY OBSERVATIONS.

INZ001>003-010>013-019-020-251600-
NORTHWEST INDIANA

CITY           SKY/WX    TMP DP  RH WIND       PRES   REMARKS
GARY /AIRPORT/ PTSUNNY   70  57  64 S5        30.05F
KNOX *+        PTSUNNY   66  56  70 SW8       30.06F
LA PORTE +     CLOUDY    64  56  75 SW6       30.07F
MICHIGAN CITY+ CLOUDY    64  57  77 S3        30.06F
MONTICELLO +   SUNNY     69  59  70 S8        30.08F
RENSSELAER +   MOSUNNY   72  63  73 SW8       30.07F
VALPARAISO     PTSUNNY   66  57  72 S6        30.06F

$$

LMZ046-743>745-251600-
SOUTHERN LAKE MICHIGAN

STATION/POSITION TIME  TEMP WIND        PRES
                       AIR  DIR/SP/G
                 (UTC) (F)  (DEG/KT/KT) (MB)
BURNS HARBOR     1400   65  190/ 10/ 14 1019.0
MICHIGAN CITY    1500   66  170/  9/ 13   N/A

$$

INZ004-005-014>016-021>024-251600-
NORTH CENTRAL INDIANA

CITY           SKY/WX    TMP DP  RH WIND       PRES   REMARKS
ELKHART        CLOUDY    68  55  64 S3        30.07
GOSHEN         CLOUDY    71  56  58 SW7       30.07F
LOGANSPORT +   MOSUNNY   70  55  60 S9        30.09F
PERU/GRISSOM   MOSUNNY   71  60  67 SW9       30.09F
ROCHESTER +    PTSUNNY   72  57  60 S5        30.08F
SOUTH BEND     CLOUDY    67  55  65 SW10      30.07F
WARSAW +       PTSUNNY   68  55  64 SW5       30.09F

$$

INZ006>009-017-018-025>027-251600-
NORTHEAST INDIANA

CITY           SKY/WX    TMP DP  RH WIND       PRES   REMARKS
ANGOLA *+      SUNNY     72  63  73 SW8       30.09F
AUBURN +       PTSUNNY   70  54  56 SW5       30.10F
FORT WAYNE     PTSUNNY   70  55  59 SW7       30.10F
HUNTINGTON +   PTSUNNY   69  55  62 SW6       30.09F

$$

INZ028-029-035-036-043>045-051>053-251600-
WEST CENTRAL INDIANA

CITY           SKY/WX    TMP DP  RH WIND       PRES   REMARKS
GREENCASTLE +  MOSUNNY   70  57  64 SE5       30.12F
LAFAYETTE      MOSUNNY   70  55  59 SW7       30.08F
TERRE HAUTE    CLOUDY    69  57  65 S3        30.11F

$$

INZ030>032-037>040-046>048-054>057-064-065-251600-
CENTRAL INDIANA

CITY           SKY/WX    TMP DP  RH WIND       PRES   REMARKS
ANDERSON       SUNNY     66  54  63 CALM      30.14S
CP ATTERBURY + PTSUNNY   70  55  60 S3        30.13S
COLUMBUS       SUNNY     68  59  73 CALM      30.13R
GREENWOOD *+   PTSUNNY   72  59  64 CALM      30.12
INDIANAPOLIS   MOSUNNY   69  55  60 S6        30.11F
-EAGLE CREEK   MOSUNNY   69  53  56 S5        30.11F
KOKOMO *+      MOSUNNY   70  57  64 S10       30.10F
MARION +       PTSUNNY   67  54  61 SW8       30.11F
MT COMFORT *+  PTSUNNY   68  61  77 S3        30.12F
SHELBYVILLE    PTSUNNY   72  58  61 CALM      30.12S
ZIONSVILLE +   MOSUNNY   70  54  57 SW5       30.12F

$$

INZ033-034-041-042-049-050-058-059-251600-
EAST CENTRAL INDIANA

CITY           SKY/WX    TMP DP  RH WIND       PRES   REMARKS
MUNCIE         CLOUDY    71  53  52 VRB3      30.12F

$$

INZ060-061-067>069-081>083-085>088-251600-
SOUTHWEST INDIANA

CITY           SKY/WX    TMP DP  RH WIND       PRES   REMARKS
EVANSVILLE     MOSUNNY   75  56  51 CALM      30.09S
HUNTINGBURG *+ MOSUNNY   72  61  68 CALM      30.10S
WASHINGTON +   PTSUNNY   69  59  71 CALM      30.11R

$$

INZ062-063-066-070>080-084-089>092-251600-
SOUTH CENTRAL AND SOUTHEAST INDIANA

CITY           SKY/WX    TMP DP  RH WIND       PRES   REMARKS
BLOOMINGTON    MOSUNNY   72  55  55 S6        30.11F
SEYMOUR +      MOSUNNY   70  43  37 CALM      30.11R

$$



USA.gov is the U.S. government's official web portal to all federal, state and local government web resources and services.